Tallulah, LA

3:45 AM CST on February 11, 2016 (GMT -0600)
Vicksburg Tallulah Regional

Weather History for KTVR - October, 2011

Change the Weather History Date:

Sunday, October 9, 2011

  Actual Average Record
Temperature  
Mean Temperature 75 °F 68 °F  
Max Temperature 84 °F 81 °F 94 °F (2010)
Min Temperature 65 °F 55 °F 31 °F (1951)
Degree Days  
Heating Degree Days 0 2  
Month to date heating degree days 22 11  
Since 1 July heating degree days 23 16  
Cooling Degree Days 10 4  
Month to date cooling degree days 28 48  
Year to date cooling degree days 2519 2145  
Growing Degree Days 23 (Base 50)    
Moisture  
Dew Point 59 °F    
Average Humidity 58    
Maximum Humidity 73    
Minimum Humidity 43    
Precipitation  
Precipitation 0.00 in 0.15 in 2.90 in (1994)
Month to date precipitation 0.00 1.23  
Year to date precipitation 27.10 40.69  
Sea Level Pressure  
Sea Level Pressure 30.10 in    
Wind  
Wind Speed 10 mph (East)    
Max Wind Speed 17 mph    
Max Gust Speed 22 mph    
Visibility 10 miles    
Events      
T = Trace of Precipitation, MM = Missing Value Source: NWS Daily Summary

Daily Weather History Graph

Daily Weather History Graph

Search for Another Location

Airport or City:

Trip Planner

Search our weather history database for the weather conditions in past years. The results will help you decide how hot, cold, wet, or windy it might be!

Date:

Astronomy

Oct. 09, 2011 Rise Set
Actual Time 7:03 AM CDT 6:38 PM CDT
Civil Twilight 6:38 AM CDT 7:03 PM CDT
Nautical Twilight 6:10 AM CDT 7:31 PM CDT
Astronomical Twilight 5:41 AM CDT 8:00 PM CDT
Moon 5:12 PM CDT (10/9) 4:53 AM CDT (10/9)
Length of Visible Light 12h 24m
Length of Day
11h 35m
Waxing Gibbous, 95% of the Moon is Illuminated
Oct 9
Waxing Gibbous
Oct 11
Full
Oct 19
Last Quarter
Oct 26
New
Nov 2
First Quarter

Hourly Weather History & Observations

Time (CDT) Temp. Heat Index Dew Point Humidity Pressure Visibility Wind Dir Wind Speed Gust Speed Precip Events Conditions
12:53 AM 71.1 °F - 59.0 °F 66% 30.14 in 10.0 mi East 9.2 mph - N/A   Clear
1:53 AM 71.1 °F - 57.9 °F 63% 30.13 in 10.0 mi East 10.4 mph - N/A   Clear
2:53 AM 70.0 °F - 57.9 °F 65% 30.13 in 10.0 mi ESE 12.7 mph - N/A   Clear
3:53 AM 69.1 °F - 57.9 °F 68% 30.12 in 10.0 mi ESE 10.4 mph - N/A   Clear
4:53 AM 68.0 °F - 57.0 °F 68% 30.13 in 10.0 mi ESE 10.4 mph - N/A   Clear
6:53 AM 64.9 °F - 55.9 °F 73% 30.15 in 10.0 mi East 6.9 mph - N/A   Clear
7:53 AM 68.0 °F - 55.9 °F 65% 30.15 in 10.0 mi East 11.5 mph - N/A   Clear
8:53 AM 70.0 °F - 55.9 °F 61% 30.16 in 10.0 mi ESE 15.0 mph - N/A   Clear
9:53 AM 73.0 °F - 57.9 °F 59% 30.16 in 10.0 mi East 11.5 mph - N/A   Clear
10:53 AM 75.9 °F - 57.9 °F 54% 30.16 in 10.0 mi East 13.8 mph 19.6 mph N/A   Clear
11:53 AM 79.0 °F - 59.0 °F 50% 30.14 in 10.0 mi East 10.4 mph - N/A   Clear
12:53 PM 81.0 °F 81.3 °F 59.0 °F 47% 30.12 in 10.0 mi East 10.4 mph - N/A   Clear
1:53 PM 82.9 °F 82.8 °F 59.0 °F 44% 30.07 in 10.0 mi East 12.7 mph - N/A   Clear
2:53 PM 82.9 °F 82.8 °F 59.0 °F 44% 30.05 in 10.0 mi East 15.0 mph - N/A   Partly Cloudy
3:53 PM 82.9 °F 82.6 °F 57.9 °F 42% 30.03 in 10.0 mi East 11.5 mph 19.6 mph N/A   Clear
4:53 PM 82.9 °F 82.8 °F 59.0 °F 44% 30.02 in 10.0 mi East 12.7 mph - N/A   Clear
5:53 PM 80.1 °F 80.7 °F 59.0 °F 48% 30.02 in 10.0 mi ENE 10.4 mph - N/A   Clear
6:53 PM 75.0 °F - 60.1 °F 60% 30.03 in 10.0 mi ENE 4.6 mph - N/A   Clear
7:53 PM 73.0 °F - 61.0 °F 66% 30.04 in 10.0 mi ENE 5.8 mph - N/A   Clear
8:53 PM 71.1 °F - 61.0 °F 70% 30.05 in 10.0 mi ENE 5.8 mph - N/A   Clear
9:53 PM 72.0 °F - 61.0 °F 68% 30.07 in 10.0 mi ENE 8.1 mph - N/A   Clear
10:53 PM 70.0 °F - 61.0 °F 73% 30.08 in 10.0 mi ENE 8.1 mph - N/A   Clear
11:53 PM 71.1 °F - 62.1 °F 73% 30.06 in 10.0 mi East 11.5 mph - N/A   Clear